Flight Track Log - Related Links

Times and Time Zones

All times are in EDT time to prevent confusion due to time zone crossing. See the C-FCPO flight status page for this flight to view local times or setup timezone preferences in your user account.

Time Position Orientation Groundspeed Altitude Reporting Facility
EDT Latitude Longitude Course Direction KTS MPH feet Rate Location/Type
12:00PM 44.8667 -63.4833 90° East 80 92 800  Level Moncton Center
12:01PM 44.8667 -63.4500 90° East 110 127 1,500 750 Climbing Moncton Center
12:02PM 44.9000 -63.4500 360° North 130 150 2,300 750 Climbing Moncton Center
12:03PM 44.9333 -63.4500 360° North 130 150 3,000 700 Climbing Moncton Center
12:04PM 44.9667 -63.4500 360° North 130 150 3,700 650 Climbing Moncton Center
12:05PM 45.0000 -63.4500 360° North 130 150 4,300 650 Climbing Moncton Center
12:06PM 45.0500 -63.4500 360° North 130 150 5,000 600 Climbing Moncton Center
12:07PM 45.0833 -63.4500 360° North 140 161 5,500 500 Climbing Moncton Center
12:08PM 45.1167 -63.4500 360° North 130 150 6,000 500 Climbing Moncton Center
12:09PM 45.1500 -63.4500 360° North 140 161 6,500 450 Climbing Moncton Center
12:10PM 45.2000 -63.4500 360° North 140 161 6,900 250 Climbing Moncton Center
12:11PM 45.2333 -63.4500 360° North 160 184 7,000 50 Climbing Moncton Center
12:12PM 45.2833 -63.4500 360° North 160 184 7,000  Level Moncton Center
12:13PM 45.3333 -63.4500 360° North 170 196 7,000  Level Moncton Center
12:14PM 45.3833 -63.4500 360° North 160 184 7,000 -100 Level Moncton Center
12:15PM 45.4167 -63.4500 360° North 160 184 6,800 -400 Descending Moncton Center
12:16PM 45.4667 -63.4500 360° North 170 196 6,200 -650 Descending Moncton Center
12:17PM 45.5167 -63.4667 347° North 180 207 5,500 -650 Descending Moncton Center
12:18PM 45.5667 -63.4667 360° North 180 207 4,900 -550 Descending Moncton Center
12:19PM 45.6167 -63.4667 360° North 170 196 4,400 -550 Descending Moncton Center
12:20PM 45.6500 -63.4833 341° North 160 184 3,800 -600 Descending Moncton Center
12:21PM 45.7000 -63.4833 360° North 170 196 3,200 -500 Descending Moncton Center
12:22PM 45.7500 -63.5167 335° Northwest 170 196 2,800 -550 Descending Moncton Center
12:23PM 45.7833 -63.5167 360° North 150 173 2,100 -500 Descending Moncton Center
12:24PM 45.8167 -63.5333 341° North 130 150 1,800 -300 Descending Moncton Center
12:25PM 45.8500 -63.5333 360° North 130 150 1,500 -350 Descending Moncton Center
12:26PM 45.8667 -63.5000 54° Northeast 120 138 1,100 -550 Descending Moncton Center
12:27PM 45.8667 -63.4667 90° East 90 104 400 -450 Descending Moncton Center
12:28PM 45.8500 -63.4333 126° Southeast 80 92 200 -200 Descending Moncton Center
12:30PM 45.8908 -63.4741 325° Northwest  Level FlightAware Approximate
12:37PM 45.8667 -63.4500 North  Level FlightAware Approximate
12:38PM 45.8667 -63.4500 North  Level FlightAware Approximate

Login

Don't have an account? Register now (free) for customized features, flight alerts, and more!